TimePST,TemperatureF,Dew PointF,Humidity,Sea Level PressureIn,VisibilityMPH,Wind Direction,Wind SpeedMPH,Gust SpeedMPH,PrecipitationIn,Events,Conditions,WindDirDegrees,DateUTC
12:54 AM,42.1,39.0,89,30.24,7.0,South,10.4,-,N/A,,Overcast,180,2013-02-22 08:54:00
1:19 AM,42.8,39.2,87,30.23,10.0,South,12.7,-,N/A,,Overcast,170,2013-02-22 09:19:00
1:54 AM,43.0,39.0,86,30.24,10.0,South,12.7,-,N/A,,Overcast,180,2013-02-22 09:54:00
2:03 AM,42.8,39.2,87,30.22,10.0,South,15.0,-,N/A,,Overcast,170,2013-02-22 10:03:00
2:54 AM,43.0,39.0,86,30.22,10.0,South,16.1,-,N/A,,Overcast,170,2013-02-22 10:54:00
3:54 AM,42.8,39.2,87,30.21,10.0,South,10.4,-,N/A,,Overcast,170,2013-02-22 11:54:00
4:54 AM,43.0,39.0,86,30.20,10.0,South,12.7,-,N/A,,Overcast,180,2013-02-22 12:54:00
5:54 AM,43.0,39.0,86,30.19,10.0,South,15.0,-,N/A,,Overcast,180,2013-02-22 13:54:00
6:54 AM,43.0,37.9,82,30.17,10.0,South,13.8,-,N/A,,Overcast,180,2013-02-22 14:54:00
7:54 AM,44.1,37.9,79,30.15,10.0,South,19.6,-,N/A,,Overcast,180,2013-02-22 15:54:00
8:54 AM,44.1,37.9,79,30.15,10.0,South,15.0,-,0.00,,Overcast,190,2013-02-22 16:54:00
9:54 AM,46.0,37.9,73,30.13,10.0,South,18.4,-,N/A,,Overcast,190,2013-02-22 17:54:00
10:28 AM,46.4,37.4,71,30.11,10.0,South,18.4,29.9,N/A,,Overcast,180,2013-02-22 18:28:00
10:54 AM,46.9,37.9,71,30.11,10.0,SSW,19.6,-,N/A,,Overcast,200,2013-02-22 18:54:00
11:54 AM,46.9,39.9,77,30.10,10.0,SSW,19.6,-,0.00,Rain,Light Rain,200,2013-02-22 19:54:00
12:54 PM,46.9,42.1,83,30.07,7.0,SSW,19.6,25.3,0.02,Rain,Light Rain,200,2013-02-22 20:54:00
1:54 PM,46.0,41.0,83,30.05,10.0,SSW,12.7,-,0.03,Rain,Light Rain,200,2013-02-22 21:54:00
2:54 PM,45.0,42.1,90,30.02,10.0,South,15.0,-,0.04,Rain,Light Rain,180,2013-02-22 22:54:00
3:54 PM,45.0,42.1,90,30.02,4.0,South,13.8,-,0.03,Rain,Light Rain,180,2013-02-22 23:54:00
4:54 PM,45.0,43.0,93,30.00,3.0,South,12.7,-,0.03,Rain,Light Rain,190,2013-02-23 00:54:00
5:29 PM,46.4,42.8,87,30.00,7.0,SW,6.9,-,0.03,Rain,Light Rain,230,2013-02-23 01:29:00
5:54 PM,46.0,43.0,89,30.02,8.0,SW,9.2,-,0.03,Rain,Light Rain,230,2013-02-23 01:54:00
6:11 PM,44.6,42.8,93,30.01,9.0,SSW,6.9,-,0.00,,Mostly Cloudy,200,2013-02-23 02:11:00
6:54 PM,43.0,41.0,93,30.04,10.0,SW,9.2,-,0.00,,Mostly Cloudy,220,2013-02-23 02:54:00
7:54 PM,44.1,37.9,79,30.06,10.0,WSW,9.2,-,N/A,,Mostly Cloudy,250,2013-02-23 03:54:00
8:54 PM,41.0,37.0,86,30.10,10.0,WNW,4.6,-,N/A,,Mostly Cloudy,290,2013-02-23 04:54:00
9:16 PM,41.0,35.6,81,30.11,5.0,West,12.7,-,0.03,Rain,Rain,270,2013-02-23 05:16:00
9:54 PM,37.0,34.0,89,30.12,10.0,SW,5.8,-,0.03,,Mostly Cloudy,220,2013-02-23 05:54:00
10:54 PM,37.0,34.0,89,30.15,10.0,SSE,6.9,-,N/A,,Mostly Cloudy,160,2013-02-23 06:54:00
11:38 PM,39.2,35.6,87,30.15,10.0,SSW,11.5,-,N/A,,Mostly Cloudy,210,2013-02-23 07:38:00
11:54 PM,39.0,35.1,86,30.16,10.0,SW,9.2,-,0.00,Rain,Light Rain,220,2013-02-23 07:54:00